| time (UTC) | temp C | wind direction | speed KPH | gust KPH | rain 1hr cm | rain 24hr cm | rain mn cm | humidity % | barometer mb |
| 20260503004533 | 16 | 220 | 3.2 | 6.4 | 0.00 | 0.00 | 0.00 | 34 | 1010.0 |
| 20260503003030 | 17 | 254 | 3.2 | 8.0 | 0.00 | 0.00 | 0.00 | 34 | 1010.2 |
| 20260503001528 | 17 | 273 | 3.2 | 8.0 | 0.00 | 0.00 | 0.00 | 33 | 1010.4 |
| 20260503000031 | 17 | 248 | 3.2 | 9.7 | 0.00 | 0.00 | 0.00 | 34 | 1010.4 |
| 20260502234520 | 17 | 284 | 3.2 | 11.3 | 0.00 | 0.00 | 0.00 | 33 | 1010.5 |
| 20260502233018 | 17 | 258 | 4.8 | 11.3 | 0.00 | 0.00 | 0.00 | 32 | 1010.7 |
| 20260502231519 | 17 | 298 | 6.4 | 12.9 | 0.00 | 0.00 | 0.00 | 30 | 1010.8 |
| 20260502230011 | 17 | 275 | 6.4 | 12.9 | 0.00 | 0.00 | 0.00 | 30 | 1011.1 |
| 20260502224539 | 17 | 255 | 3.2 | 12.9 | 0.00 | 0.00 | 0.00 | 30 | 1011.3 |
| 20260502223037 | 17 | 259 | 8.0 | 24.1 | 0.00 | 0.00 | 0.00 | 30 | 1011.5 |
| 20260502221535 | 18 | 331 | 3.2 | 12.9 | 0.00 | 0.00 | 0.00 | 30 | 1011.7 |
| 20260502220034 | 18 | 292 | 9.7 | 22.5 | 0.00 | 0.00 | 0.00 | 29 | 1011.9 |
| 20260502214528 | 18 | 305 | 4.8 | 17.7 | 0.00 | 0.00 | 0.00 | 29 | 1012.0 |
| 20260502213025 | 18 | 313 | 9.7 | 19.3 | 0.00 | 0.00 | 0.00 | 28 | 1012.2 |
| 20260502211522 | 18 | 331 | 8.0 | 19.3 | 0.00 | 0.00 | 0.00 | 28 | 1012.5 |
| 20260502210018 | 17 | 264 | 4.8 | 20.9 | 0.00 | 0.00 | 0.00 | 30 | 1012.8 |
| 20260502204519 | 18 | 267 | 8.0 | 25.7 | 0.00 | 0.00 | 0.00 | 28 | 1012.9 |
| 20260502204517 | 18 | 300 | 8.0 | 25.7 | 0.00 | 0.00 | 0.00 | 28 | 1012.9 |
| 20260502203012 | 17 | 263 | 11.3 | 19.3 | 0.00 | 0.00 | 0.00 | 28 | 1013.1 |
| 20260502201508 | 18 | 297 | 11.3 | 20.9 | 0.00 | 0.00 | 0.00 | 27 | 1013.4 |
| 20260502200101 | 17 | 250 | 9.7 | 17.7 | 0.00 | 0.00 | 0.00 | 28 | 1013.7 |
| 20260502194616 | 16 | 317 | 8.0 | 19.3 | 0.00 | 0.00 | 0.00 | 29 | 1014.0 |
| 20260502193105 | 17 | 258 | 8.0 | 22.5 | 0.00 | 0.00 | 0.00 | 30 | 1014.3 |
| 20260502191559 | 17 | 309 | 8.0 | 12.9 | 0.00 | 0.00 | 0.00 | 27 | 1014.5 |
| 20260502190022 | 17 | 285 | 6.4 | 35.4 | 0.00 | 0.00 | 0.00 | 28 | 1014.8 |
| 20260502184512 | 16 | 268 | 8.0 | 17.7 | 0.00 | 0.00 | 0.00 | 29 | 1015.0 |
| 20260502183007 | 16 | 329 | 11.3 | 16.1 | 0.00 | 0.00 | 0.00 | 28 | 1015.3 |
| 20260502181507 | 16 | 297 | 11.3 | 20.9 | 0.00 | 0.00 | 0.00 | 29 | 1015.5 |
| 20260502163037 | 15 | 355 | 11.3 | 19.3 | 0.00 | 0.00 | 0.00 | 30 | 1016.8 |
| 20260502161527 | 14 | 275 | 12.9 | 20.9 | 0.00 | 0.00 | 0.00 | 32 | 1017.1 |
| 20260502151515 | 12 | 326 | 8.0 | 20.9 | 0.00 | 0.00 | 0.00 | 36 | 1017.4 |
| 20260502123002 | 6 | 216 | 0.0 | 1.6 | 0.00 | 0.00 | 0.00 | 65 | 1018.2 |
| 20260502121502 | 4 | 216 | 0.0 | 1.6 | 0.00 | 0.00 | 0.00 | 68 | 1018.1 |
| 20260502114601 | 2 | 216 | 0.0 | 3.2 | 0.00 | 0.00 | 0.00 | 72 | 1017.9 |
| 20260502113058 | 1 | 216 | 0.0 | 3.2 | 0.00 | 0.00 | 0.00 | 76 | 1017.9 |
| 20260502111657 | 1 | 216 | 0.0 | 1.6 | 0.00 | 0.00 | 0.00 | 76 | 1017.9 |
| 20260502110056 | 1 | 216 | 0.0 | 3.2 | 0.00 | 0.00 | 0.00 | 76 | 1017.8 |
| 20260502104556 | 1 | 216 | 0.0 | 1.6 | 0.00 | 0.00 | 0.00 | 76 | 1017.8 |
| 20260502103053 | 1 | 216 | 0.0 | 3.2 | 0.00 | 0.00 | 0.00 | 74 | 1017.8 |
| 20260502101559 | 1 | 216 | 0.0 | 1.6 | 0.00 | 0.00 | 0.00 | 76 | 1017.8 |
| 20260502091517 | 2 | 216 | 0.0 | 3.2 | 0.00 | 0.00 | 0.00 | 72 | 1018.1 |
| 20260502071532 | 3 | 249 | 0.0 | 3.2 | 0.00 | 0.00 | 0.00 | 68 | 1017.9 |
| 20260502070031 | 3 | 251 | 1.6 | 3.2 | 0.00 | 0.00 | 0.00 | 70 | 1018.1 |
| 20260502064534 | 2 | 211 | 0.0 | 3.2 | 0.00 | 0.00 | 0.00 | 67 | 1018.2 |
| 20260502063027 | 4 | 211 | 0.0 | 3.2 | 0.00 | 0.00 | 0.00 | 65 | 1018.2 |
| 20260502061522 | 5 | 211 | 0.0 | 1.6 | 0.00 | 0.00 | 0.00 | 62 | 1018.2 |
| 20260502060022 | 5 | 211 | 0.0 | 1.6 | 0.00 | 0.00 | 0.00 | 64 | 1018.2 |
| 20260502054523 | 5 | 211 | 0.0 | 1.6 | 0.00 | 0.00 | 0.00 | 61 | 1018.2 |
| 20260502053021 | 4 | 211 | 0.0 | 1.6 | 0.00 | 0.00 | 0.00 | 63 | 1018.3 |
| 20260502051523 | 5 | 211 | 0.0 | 1.6 | 0.00 | 0.00 | 0.00 | 60 | 1018.1 |
| 20260502050118 | 6 | 211 | 0.0 | 0.0 | 0.00 | 0.00 | 0.00 | 58 | 1018.1 |
| 20260502044516 | 5 | 211 | 0.0 | 0.0 | 0.00 | 0.00 | 0.00 | 60 | 1018.0 |
| 20260502043016 | 5 | 211 | 0.0 | 3.2 | 0.00 | 0.00 | 0.00 | 64 | 1018.0 |
| 20260502041523 | 4 | 211 | 0.0 | 1.6 | 0.00 | 0.00 | 0.00 | 62 | 1018.0 |
| 20260502040013 | 5 | 211 | 0.0 | 1.6 | 0.00 | 0.00 | 0.00 | 61 | 1018.1 |
| 20260502034514 | 5 | 211 | 0.0 | 3.2 | 0.00 | 0.00 | 0.00 | 64 | 1018.1 |
| 20260502033017 | 5 | 211 | 0.0 | 1.6 | 0.00 | 0.00 | 0.00 | 60 | 1018.1 |
| 20260502031507 | 5 | 211 | 0.0 | 1.6 | 0.00 | 0.00 | 0.00 | 61 | 1018.1 |
| 20260502030013 | 6 | 211 | 0.0 | 1.6 | 0.00 | 0.00 | 0.00 | 56 | 1018.1 |
| 20260502024502 | 6 | 211 | 0.0 | 3.2 | 0.00 | 0.00 | 0.00 | 56 | 1018.0 |
| 20260502023058 | 6 | 211 | 0.0 | 3.2 | 0.00 | 0.00 | 0.00 | 54 | 1018.0 |
| 20260502021552 | 7 | 211 | 1.6 | 3.2 | 0.00 | 0.00 | 0.00 | 52 | 1017.8 |
| 20260502020044 | 8 | 211 | 1.6 | 3.2 | 0.00 | 0.00 | 0.00 | 48 | 1017.8 |
| 20260502014540 | 8 | 306 | 0.0 | 1.6 | 0.00 | 0.00 | 0.00 | 48 | 1017.6 |
| 20260502013036 | 9 | 306 | 0.0 | 3.2 | 0.00 | 0.00 | 0.00 | 39 | 1017.5 |
| 20260502011531 | 10 | 312 | 0.0 | 3.2 | 0.00 | 0.00 | 0.00 | 37 | 1017.4 |
| 20260502010038 | 10 | 323 | 4.8 | 11.3 | 0.00 | 0.00 | 0.00 | 34 | 1017.3 |